Location: Brunembert
(50.7122°N, 1.8935°E)
Time: 19:46:57
(UTC+00:00)

NOSS 2-1 (C) - Visible Passes

Search period start: 23 July 2021 00:00
Search period end: 02 August 2021 00:00
Orbit: 427 x 1774 km, 63.3° (Epoch: 20 July)

Date Brightness Start Highest point End Pass type
(mag) Time Alt. Az. Time Alt. Az. Time Alt. Az.
23 Jul 3.6 00:33:05 31° W 00:34:19 48° NW 00:37:45 10° NE visible
23 Jul 5.8 02:23:39 10° NW 02:25:46 15° N 02:28:07 10° NNE visible
23 Jul 2.6 23:47:41 76° SSW 23:47:55 86° SE 23:51:22 10° NE visible
24 Jul 5.6 01:36:31 10° WNW 01:38:58 18° NNW 01:41:40 10° NNE visible
24 Jul 3.6 23:02:14 37° E 23:02:14 37° E 23:04:52 10° NE visible
25 Jul 5.1 00:49:30 10° W 00:52:15 25° NNW 00:55:20 10° NNE visible
25 Jul 6.1 02:42:10 10° NNW 02:44:10 14° N 02:46:23 10° NNE visible
25 Jul 4.8 22:16:43 17° E 22:16:43 17° E 22:18:02 10° ENE visible
26 Jul 4.2 00:03:59 22° W 00:05:40 38° NW 00:09:02 10° NE visible
26 Jul 6.0 01:55:15 10° NW 01:57:17 14° N 01:59:32 10° NNE visible
26 Jul 3.0 23:18:24 46° WSW 23:19:12 70° NW 23:22:41 10° NE visible
27 Jul 5.8 01:08:09 10° WNW 01:10:27 17° NNW 01:12:59 10° NNE visible
27 Jul 6.2 03:00:07 10° NNW 03:02:33 16° NNE 03:05:23 10° NE visible
27 Jul 2.8 22:32:43 56° SE 22:32:53 57° SE 22:36:15 10° NE visible
28 Jul 5.5 00:21:02 10° WNW 00:23:41 21° NNW 00:26:37 10° NNE visible
28 Jul 6.2 02:13:37 10° NNW 02:15:41 14° N 02:18:01 10° NE visible
28 Jul 3.8 21:46:54 27° ESE 21:46:54 27° ESE 21:49:35 10° ENE visible
28 Jul 4.7 23:34:08 10° W 23:37:02 31° NNW 23:40:18 10° NNE visible
29 Jul 6.2 01:26:50 10° NW 01:28:48 14° N 01:31:00 10° NNE visible
29 Jul 6.2 03:17:40 10° NNW 03:20:50 21° NNE 03:24:43 10° ENE visible
29 Jul 4.7 21:00:51 14° ESE 21:00:51 14° ESE 21:02:23 10° E visible
29 Jul 3.6 22:48:04 16° WSW 22:50:31 53° NW 22:53:59 10° NE visible
30 Jul 6.0 00:39:47 10° NW 00:41:56 15° NNW 00:44:19 10° NNE visible
30 Jul 6.3 02:31:24 10° NNW 02:34:03 17° NNE 02:37:10 10° ENE visible
30 Jul 2.7 22:01:31 15° SW 22:04:09 79° SE 22:07:36 10° NE visible
30 Jul 5.8 23:52:39 10° WNW 23:55:08 19° NNW 23:57:53 10° NNE visible
31 Jul 6.4 01:45:00 10° NNW 01:47:13 15° N 01:49:42 10° NE visible
31 Jul 5.9 03:35:05 10° NNW 03:38:55 32° NNE 03:43:58 10° E visible
31 Jul 3.3 21:14:50 10° SSW 21:17:54 37° SE 21:21:03 10° ENE visible
31 Jul 5.2 23:05:37 10° W 23:08:26 26° NNW 23:11:34 10° NNE visible
01 Aug 6.4 00:58:20 10° NNW 01:00:19 14° N 01:02:31 10° NNE visible
01 Aug 6.3 02:48:53 10° NNW 02:52:17 24° NNE 02:56:31 10° E visible
01 Aug 4.3 20:29:22 10° SSE 20:31:45 19° ESE 20:34:09 10° ENE visible
01 Aug 4.2 22:18:45 10° WSW 22:21:52 41° NW 22:25:16 10° NE visible
